METAR Formatted Surface Weather Observation
Issued by NWS Upton, NY

Home | Current Version | Previous Version | Text Only | Print | Product List | Glossary On
Versions: 1 2 3 4 5 6 7 8 9 10 11 12 13 14 15 16 17 18 19 20 21 22 23 24 25 26 27 28 29 30 31 32 33 34 35 36 37 38 39 40 41 42 43 44 45 46 47 48 49 50
705
SAUS41 KOKX 182352
MTRNYC
METAR KNYC 182351Z AUTO 26005KT 4SM RA BR SCT090 OVC110 23/22 A2982
RMK AO2 SLP088 P0009 60009 T02330222 10278 20233 51005



USA.gov is the U.S. government's official web portal to all federal, state and local government web resources and services.